Tracking 27371 objects as of 7-Jun-2023
HD Live streaming from Space Station
objects crossing your sky now

COSMOS 2499 DEB

Track COSMOS 2499 DEB now!
10-day predictions


NORAD ID: 55736
Int'l Code: 2014-028AY
Perigee: 1,090.8 km
Apogee: 1,475.8 km
Inclination: 82.4 °
Period: 111.1 minutes
Semi major axis: 7654 km
RCS: Unknown
Launch date: May 23, 2014
Source: Commonwealth of Independent States (former USSR) (CIS)
Launch site: PLESETSK MISSILE AND SPACE COMPLEX (PKMTR)

Note: This is SATELLITE DEBRIS
Your satellite tracking list
Your tracking list is empty




NASA's NSSDC Master Catalog

Two Line Element Set (TLE):
1 55736U 14028AY  23143.10281863  .00006068  00000-0  18316-1 0  9993
2 55736  82.3627 285.9200 0251481 117.5628 245.1272 12.96414465 14485
Source of the keplerian elements: AFSPC